Tampa Macdill AFB, FL

12:08 AM EDT on June 25, 2017 (GMT -0400)
MacDill Air Force Base

Weather History for KMCF - February, 2014

Change the Weather History Date:

Thursday, February 6, 2014

  Actual Average Record
Temperature  
Mean Temperature 62 °F -  
Max Temperature 70 °F 68 °F 85 °F (2012)
Min Temperature 53 °F 50 °F 30 °F (2009)
Degree Days  
Heating Degree Days 4    
Growing Degree Days 12 (Base 50)    
Moisture  
Dew Point 63 °F    
Average Humidity 93    
Maximum Humidity 100    
Minimum Humidity 81    
Precipitation  
Precipitation 0.00 in - - ()
Sea Level Pressure  
Sea Level Pressure 30.11 in    
Wind  
Wind Speed 7 mph (NNE)    
Max Wind Speed 16 mph    
Max Gust Speed 21 mph    
Visibility 9 miles    
Events Fog , Rain    
Averages and records for this station are not official NWS values.
T = Trace of Precipitation, MM = Missing Value Source: NWS Daily Summary

Daily Weather History Graph

Daily Weather History Graph

Search for Another Location

Airport or City:

Trip Planner

Search our weather history database for the weather conditions in past years. The results will help you decide how hot, cold, wet, or windy it might be!

Date:

Astronomy

Feb. 06, 2014 Rise Set
Actual Time 7:14 AM EST 6:14 PM EST
Civil Twilight 6:49 AM EST 6:38 PM EST
Nautical Twilight 6:21 AM EST 7:06 PM EST
Astronomical Twilight 5:54 AM EST 7:34 PM EST
Moon 11:47 AM EST (2/6) 12:28 AM EST (2/6)
Length of Visible Light 11h 49m
Length of Day
11h 00m
Waxing Crescent, 49% of the Moon is Illuminated
Feb 6
Waxing Crescent
Feb 6
First Quarter
Feb 14
Full
Feb 22
Last Quarter
Mar 1
New

Hourly Weather History & Observations

Time (EST) Temp. Dew Point Humidity Pressure Visibility Wind Dir Wind Speed Gust Speed Precip Events Conditions
12:03 AM 68.0 °F 68.0 °F 100% 30.07 in 0.8 mi NW 4.6 mph - N/A   Mist
12:08 AM 68.0 °F 68.0 °F 100% 30.07 in 0.5 mi NW 3.5 mph - N/A Fog Fog
12:18 AM 68.0 °F 68.0 °F 100% 30.07 in 1.0 mi Variable 3.5 mph - N/A   Mist
12:23 AM 68.0 °F 68.0 °F 100% 30.07 in 3.0 mi NW 3.5 mph - N/A   Overcast
12:38 AM 68.0 °F 68.0 °F 100% 30.07 in 10.0 mi NW 5.8 mph - N/A   Overcast
12:48 AM 66.2 °F 66.2 °F 100% 30.07 in 10.0 mi WNW 8.1 mph - N/A   Overcast
12:53 AM 66.2 °F 66.2 °F 100% 30.07 in 10.0 mi NW 6.9 mph - N/A   Overcast
12:58 AM 66.9 °F 66.9 °F 100% 30.08 in 10.0 mi NW 5.8 mph - N/A   Overcast
1:08 AM 66.2 °F 66.2 °F 100% 30.07 in 10.0 mi NW 5.8 mph - N/A   Overcast
1:13 AM 66.2 °F 66.2 °F 100% 30.08 in 10.0 mi NW 5.8 mph - N/A   Overcast
1:18 AM 66.2 °F 66.2 °F 100% 30.08 in 10.0 mi NW 5.8 mph - N/A   Overcast
1:38 AM 64.4 °F 64.4 °F 100% 30.08 in 10.0 mi NW 3.5 mph - N/A   Scattered Clouds
1:58 AM 64.4 °F 64.4 °F 100% 30.09 in 10.0 mi Variable 3.5 mph - N/A   Clear
2:58 AM 63.3 °F 63.0 °F 99% 30.08 in 10.0 mi NW 3.5 mph - N/A   Overcast
3:58 AM 63.3 °F 62.4 °F 97% 30.08 in 10.0 mi NW 4.6 mph - N/A   Overcast
4:58 AM 62.4 °F 61.9 °F 98% 30.08 in 10.0 mi NNW 4.6 mph - N/A   Mostly Cloudy
5:58 AM 62.2 °F 61.9 °F 99% 30.09 in 10.0 mi NNW 4.6 mph - N/A   Overcast
6:27 AM 62.6 °F 62.6 °F 100% 30.09 in 10.0 mi North 2.3 mph - N/A Rain Light Rain
6:40 AM 62.6 °F 62.6 °F 100% 30.09 in 10.0 mi NNE 4.6 mph - N/A   Mostly Cloudy
6:58 AM 62.1 °F 61.7 °F 99% 30.11 in 10.0 mi NNW 3.5 mph - 0.00 in   Overcast
7:58 AM 62.6 °F 62.4 °F 99% 30.13 in 10.0 mi North 3.5 mph - N/A   Overcast
8:28 AM 64.4 °F 64.4 °F 100% 30.12 in 10.0 mi NE 8.1 mph - N/A   Overcast
8:38 AM 64.4 °F 64.4 °F 100% 30.13 in 10.0 mi ENE 8.1 mph - N/A   Scattered Clouds
8:43 AM 64.4 °F 64.4 °F 100% 30.13 in 10.0 mi NE 5.8 mph - N/A   Mostly Cloudy
8:58 AM 65.5 °F 65.3 °F 99% 30.15 in 10.0 mi NE 8.1 mph - N/A   Overcast
9:58 AM 66.4 °F 66.0 °F 99% 30.17 in 10.0 mi ENE 6.9 mph - N/A   Overcast
10:33 AM 68.0 °F 66.2 °F 94% 30.15 in 10.0 mi ENE 5.8 mph - N/A   Overcast
10:58 AM 67.5 °F 64.8 °F 91% 30.16 in 10.0 mi ENE 6.9 mph - N/A   Overcast
11:18 AM 68.0 °F 64.4 °F 88% 30.15 in 10.0 mi ENE 8.1 mph - N/A   Overcast
11:43 AM 68.0 °F 62.6 °F 83% 30.15 in 10.0 mi ENE 10.4 mph - N/A   Light Drizzle
11:58 AM 67.1 °F 63.1 °F 87% 30.15 in 10.0 mi ENE 9.2 mph - 0.00 in Rain Light Rain
12:09 PM 66.2 °F 62.6 °F 88% 30.13 in 10.0 mi ENE 11.5 mph - N/A   Overcast
12:18 PM 68.0 °F 64.4 °F 88% 30.12 in 10.0 mi ENE 11.5 mph - N/A Rain Light Rain
12:50 PM 66.2 °F 62.6 °F 88% 30.11 in 10.0 mi ENE 10.4 mph - N/A   Overcast
12:58 PM 66.0 °F 63.3 °F 91% 30.11 in 10.0 mi ENE 9.2 mph - 0.00 in   Overcast
1:58 PM 68.4 °F 63.5 °F 84% 30.08 in 10.0 mi East 12.7 mph - N/A   Overcast
2:33 PM 68.0 °F 62.6 °F 83% 30.06 in 10.0 mi East 12.7 mph - N/A   Mostly Cloudy
2:38 PM 68.0 °F 62.6 °F 83% 30.06 in 10.0 mi East 10.4 mph - N/A   Mostly Cloudy
2:47 PM 69.8 °F 64.4 °F 83% 30.05 in 10.0 mi East 12.7 mph - N/A Rain Light Rain
2:58 PM 69.4 °F 64.8 °F 85% 30.05 in 10.0 mi East 12.7 mph - 0.00 in Rain Light Rain
3:11 PM 69.8 °F 64.4 °F 83% 30.05 in 10.0 mi East 11.5 mph - N/A   Scattered Clouds
3:58 PM 70.0 °F 64.0 °F 81% 30.05 in 10.0 mi East 12.7 mph - 0.00 in   Clear
4:28 PM 69.8 °F 64.4 °F 83% 30.06 in 10.0 mi East 9.2 mph - N/A   Mostly Cloudy
4:58 PM 68.5 °F 63.3 °F 83% 30.08 in 10.0 mi East 6.9 mph - N/A   Overcast
5:58 PM 68.0 °F 63.5 °F 85% 30.09 in 10.0 mi East 6.9 mph - N/A   Overcast
6:10 PM 68.0 °F 62.6 °F 83% 30.09 in 10.0 mi NNE 4.6 mph - N/A Rain Light Rain
6:25 PM 68.0 °F 62.6 °F 83% 30.10 in 10.0 mi North 5.8 mph - N/A   Overcast
6:48 PM 66.2 °F 62.6 °F 88% 30.10 in 10.0 mi North 6.9 mph - N/A   Light Drizzle
6:58 PM 66.0 °F 62.1 °F 87% 30.11 in 10.0 mi NNE 9.2 mph - 0.00 in Rain Light Rain
7:11 PM 64.4 °F 60.8 °F 88% 30.11 in 10.0 mi NE 10.4 mph - N/A   Overcast
7:56 PM 60.8 °F 59.0 °F 94% 30.12 in 10.0 mi NE 12.7 mph - N/A   Scattered Clouds
7:58 PM 61.3 °F 58.3 °F 90% 30.13 in 10.0 mi NE 12.7 mph - 0.00 in   Scattered Clouds
8:08 PM 60.8 °F 57.2 °F 88% 30.12 in 10.0 mi ENE 12.7 mph - N/A   Mostly Cloudy
8:58 PM 58.3 °F 55.8 °F 91% 30.14 in 10.0 mi ENE 16.1 mph - N/A   Overcast
9:38 PM 57.2 °F 55.4 °F 94% 30.18 in 10.0 mi NNE 11.5 mph - N/A   Overcast
9:58 PM 56.8 °F 53.8 °F 89% 30.18 in 10.0 mi NNE 10.4 mph - N/A   Overcast
10:13 PM 55.4 °F 53.6 °F 94% 30.18 in 10.0 mi NNE 11.5 mph 20.7 mph N/A   Overcast
10:58 PM 54.7 °F 51.8 °F 90% 30.19 in 10.0 mi NE 9.2 mph 18.4 mph N/A   Overcast
11:43 PM 53.6 °F 51.8 °F 94% 30.18 in 10.0 mi NNE 10.4 mph - N/A   Overcast
11:58 PM 53.4 °F 51.4 °F 93% 30.19 in 10.0 mi NE 11.5 mph - N/A   Overcast